Terminal Aerodrome Forecast
Issued by NWS

Home | Current Version | Previous Version | Text Only | Print | Product List | Glossary On
Versions: 1 2 3 4 5 6 7 8 9 10 11 12 13 14 15 16 17 18 19 20 21 22 23 24 25 26 27 28 29 30 31 32 33
000
FTUS43 KLOT 040526
TAFMDW
TAF
KMDW 040526Z 0406/0506 18011G16KT P6SM VCSH SCT040 OVC090
     FM040930 30011G19KT 4SM TSRA OVC040CB
     FM041200 30007KT 5SM -SHRA VCTS SCT020 OVC035CB
     FM041500 32007KT 6SM BR VCSH OVC015
     FM041700 03011KT P6SM VCSH OVC015
     FM042100 03010KT P6SM BKN025
     FM050000 04009KT P6SM BKN040=

USA.gov is the U.S. government's official web portal to all federal, state and local government web resources and services.